Home   Weather   Xi'an   Past weeks

Flag for China Past Weather in Xi'an, Shaanxi, China — Yesterday and Last 2 Weeks

Now
61 °F

Fog.


Feels Like: 61 °F
Forecast: 58 / 80 °F
Wind: 3 mph from West

Location: Xian/Xianyang

Current Time: Sep 29, 2016 at 9:45:54 PM

Latest Report: Sep 29, 2016 at 9:00 PM


Visibility: 3 mi

Pressure: 30.07 "Hg

Humidity: 88%

Dew Point: 57 °F

Location of Xi'anLocation

Past Weather in Xi'an — Graph

°F

Xi'an Temperature Yesterday

Maximum temperature yesterday: 72 °F (at 2:00 PM)
Minimum temperature yesterday: 59 °F (at 11:00 PM)
Average temperature yesterday: 65 °F

High & Low Weather Summary for the Past Weeks

 TemperatureHumidityPressure
High86 °F (Sep 16, 3:00 PM)100% (Sep 14, 8:00 PM)30.21 "Hg (Sep 14, 8:00 PM)
Low54 °F (Sep 22, 6:00 AM)43% (Sep 23, 2:00 PM)29.80 "Hg (Sep 25, 4:00 PM)
Average68 °F84%30.02 "Hg
* Reported Sep 14 8:00 PM — Sep 29 8:00 PM, Xi'an, Weather by CustomWeather, © 2016

Note: Actual official high and low records may vary slightly from our data, if they occured in-between our weather recording intervals... More about our weather records

Advertising

Xi'an Weather History for the Previous 24 Hours

Scroll right to see more
 ConditionsComfort  
Time TempWeatherWind HumidityBarometerVisibility
8:00 PM
Thu, Sep 29
63 °FFog.3 mph83%30.07 "Hg3 mi
7:00 PM64 °FFog.6 mph78%30.07 "Hg3 mi
6:00 PM66 °FHaze.3 mph73%30.07 "Hg3 mi
5:00 PM68 °FScattered clouds.3 mph64%30.07 "Hg3 mi
4:00 PM68 °FPassing clouds.6 mph64%30.07 "Hg4 mi
3:00 PM68 °FPassing clouds.1 mph64%30.07 "Hg4 mi
2:00 PM68 °FClear.1 mph60%30.07 "Hg4 mi
1:00 PM66 °FScattered clouds.1 mph68%30.09 "Hg4 mi
12:00 PM63 °FScattered clouds.3 mph68%30.12 "Hg4 mi
11:00 AM63 °FScattered clouds.8 mph68%30.15 "Hg4 mi
10:00 AM61 °FScattered clouds.10 mph72%30.15 "Hg4 mi
9:00 AM59 °FScattered clouds.6 mph77%30.15 "Hg4 mi
8:00 AM57 °FScattered clouds.8 mph82%30.12 "Hg4 mi
7:00 AM57 °FPassing clouds.8 mph82%30.12 "Hg4 mi
6:00 AM57 °FPassing clouds.8 mph82%30.12 "Hg4 mi
5:00 AM59 °FPassing clouds.10 mph82%30.09 "Hg4 mi
4:00 AM57 °FPassing clouds.6 mph88%30.12 "Hg4 mi
3:00 AM59 °FPassing clouds.8 mph82%30.09 "Hg4 mi
2:00 AM59 °FClear.3 mph88%30.12 "Hg5 mi
1:00 AM59 °FClear.10 mph82%30.12 "Hg5 mi
12:00 AM59 °FClear.8 mph82%30.12 "Hg5 mi
11:00 PM
Wed, Sep 28
59 °FClear.10 mph77%30.15 "Hg5 mi
10:00 PM61 °FClear.10 mph72%30.15 "Hg5 mi
9:00 PM61 °FClear.8 mph72%30.12 "Hg5 mi
Weather by CustomWeather, © 2016

See weather overviewHow to use our weather pages